User: anonymous   Login
Location: Unspecified
(0.0000°N, 0.0000°E)
Time: 20:13:10
(UTC+00:00)
Language:

UHF F/O F3 - Orbit

View from above orbital plane
View from above orbital plane
View from above satellite
View from above satellite

Ground track
Ground track

The orbit data is extracted from the following two-line orbital elements,

1 23132U 94035A   21136.35650382 -.00000108  00000-0  00000-0 0  9997
2 23132  11.6249  16.4305 0004811  31.8303 302.5257  1.00276221113063
Epoch (UTC): 16 May 2021 08:33:21
Eccentricity: 0.0004811
inclination: 11.6249°
perigee height: 35764 km
apogee height: 35805 km
right ascension of ascending node: 16.4305°
argument of perigee: 31.8303°
revolutions per day: 1.00276221
mean anomaly at epoch: 302.5257°
orbit number at epoch: 11306

The dashed part of the orbit path shows where the satellite is in the earth's shadow,  

DLR